When you browse on this site, cookies collect data to enhance your experience and personalize the content and advertising you see.
Visit our Privacy Policy to learn more. By continuing to use the site, you agree to this use of cookies and data.
  • In Lithuania
  • List of Countries
  • For 7 days
  • Water Temperature
  • Satellite Maps
  • Weather Map
  • Weather Widgets
  • user-avatar
    Login

    Hourly Weather Elbasan

    Today, 16 July, Tuesday

    Time Temperature Precipitation Wind Pressure Humidity
    00:00 +21°C° 0.2 mm 1 mps 730 mmHg 80%
    01:00 +21°C° 0.2 mm 1 mps 730 mmHg 81%
    02:00 +20°C° 0.2 mm 1 mps 730 mmHg 82%
    03:00 +19°C° 0.2 mm 2 mps 730 mmHg 83%
    04:00 +19°C° 0.2 mm 2 mps 730 mmHg 84%
    05:00 +19°C° 0.4 mm 2 mps 730 mmHg 82%
    06:00 +20°C° 0.4 mm 2 mps 730 mmHg 81%
    07:00 +20°C° 0.4 mm 2 mps 730 mmHg 79%
    08:00 +20°C° 0.1 mm 2 mps 730 mmHg 78%
    09:00 +20°C° 0.1 mm 2 mps 730 mmHg 77%
    10:00 +20°C° 0.1 mm 2 mps 731 mmHg 76%
    11:00 +20°C° 0.5 mm 2 mps 730 mmHg 75%
    12:00 +20°C° 0.5 mm 2 mps 730 mmHg 75%
    13:00 +20°C° 0.5 mm 2 mps 730 mmHg 74%
    14:00 +20°C° 0.5 mm 2 mps 730 mmHg 74%
    15:00 +20°C° 0.5 mm 2 mps 730 mmHg 73%
    16:00 +20°C° 0.5 mm 3 mps 730 mmHg 72%
    17:00 +20°C° 0.2 mm 2 mps 730 mmHg 75%
    18:00 +19°C° 0.2 mm 2 mps 730 mmHg 78%
    19:00 +19°C° 0.2 mm 2 mps 730 mmHg 81%
    20:00 +18°C° 0 mm 2 mps 730 mmHg 80%
    21:00 +18°C° 0 mm 2 mps 730 mmHg 80%
    22:00 +18°C° 0 mm 2 mps 731 mmHg 79%
    23:00 +18°C° 0 mm 2 mps 731 mmHg 79%

    Tomorrow, 17 July, Wednesday

    Time Temperature Precipitation Wind Pressure Humidity
    00:00 +17°C° 0 mm 2 mps 731 mmHg 79%
    01:00 +17°C° 0 mm 2 mps 731 mmHg 80%
    02:00 +17°C° 0 mm 2 mps 730 mmHg 80%
    03:00 +17°C° 0 mm 2 mps 730 mmHg 80%
    04:00 +17°C° 0 mm 3 mps 730 mmHg 81%
    05:00 +18°C° 0 mm 3 mps 731 mmHg 76%
    06:00 +20°C° 0 mm 2 mps 731 mmHg 70%
    07:00 +21°C° 0 mm 2 mps 731 mmHg 65%
    08:00 +24°C° 0 mm 2 mps 732 mmHg 58%
    09:00 +26°C° 0 mm 2 mps 732 mmHg 51%
    10:00 +28°C° 0 mm 2 mps 732 mmHg 43%
    11:00 +28°C° 0 mm 2 mps 732 mmHg 42%
    12:00 +29°C° 0 mm 2 mps 732 mmHg 40%
    13:00 +30°C° 0 mm 2 mps 732 mmHg 38%
    14:00 +29°C° 0 mm 2 mps 732 mmHg 40%
    15:00 +29°C° 0 mm 2 mps 732 mmHg 41%
    16:00 +29°C° 0 mm 2 mps 731 mmHg 43%
    17:00 +27°C° 0 mm 2 mps 731 mmHg 50%
    18:00 +25°C° 0 mm 2 mps 731 mmHg 58%
    19:00 +23°C° 0 mm 1 mps 731 mmHg 66%
    20:00 +22°C° 0 mm 1 mps 732 mmHg 67%
    21:00 +21°C° 0 mm 1 mps 732 mmHg 69%
    22:00 +20°C° 0 mm 1 mps 732 mmHg 70%
    23:00 +20°C° 0 mm 1 mps 732 mmHg 69%

    Day after tomorrow, 18 July, Thursday

    Time Temperature Precipitation Wind Pressure Humidity
    00:00 +20°C° 0 mm 1 mps 732 mmHg 67%
    01:00 +20°C° 0 mm 1 mps 732 mmHg 66%
    02:00 +19°C° 0 mm 1 mps 732 mmHg 66%
    03:00 +19°C° 0 mm 1 mps 732 mmHg 65%
    04:00 +19°C° 0 mm 1 mps 732 mmHg 65%
    05:00 +21°C° 0 mm 1 mps 732 mmHg 61%
    06:00 +23°C° 0 mm 1 mps 732 mmHg 57%
    07:00 +24°C° 0 mm 1 mps 732 mmHg 53%
    08:00 +26°C° 0 mm 1 mps 732 mmHg 49%
    09:00 +27°C° 0 mm 1 mps 732 mmHg 45%
    10:00 +29°C° 0 mm 1 mps 733 mmHg 40%
    11:00 +29°C° 0 mm 2 mps 733 mmHg 40%
    12:00 +30°C° 0 mm 2 mps 732 mmHg 39%
    13:00 +31°C° 0 mm 3 mps 732 mmHg 38%
    14:00 +30°C° 0.1 mm 3 mps 732 mmHg 43%
    15:00 +29°C° 0.1 mm 3 mps 732 mmHg 47%
    16:00 +28°C° 0.1 mm 3 mps 732 mmHg 52%
    17:00 +26°C° 0.2 mm 2 mps 732 mmHg 59%
    18:00 +25°C° 0.2 mm 1 mps 732 mmHg 66%
    19:00 +21°C° 0.2 mm 0 mps 732 mmHg 73%
    20:00 +22°C° 0 mm 1 mps 733 mmHg 75%
    21:00 +22°C° 0 mm 1 mps 733 mmHg 76%
    22:00 +21°C° 0 mm 1 mps 733 mmHg 78%
    23:00 +21°C° 0 mm 1 mps 733 mmHg 78%

    19 July, Friday

    Time Temperature Precipitation Wind Pressure Humidity
    00:00 +21°C° 0 mm 1 mps 733 mmHg 78%
    01:00 +20°C° 0 mm 1 mps 733 mmHg 78%
    02:00 +20°C° 0 mm 1 mps 733 mmHg 78%
    03:00 +20°C° 0 mm 1 mps 733 mmHg 78%
    04:00 +20°C° 0 mm 1 mps 733 mmHg 77%
    05:00 +21°C° 0 mm 1 mps 733 mmHg 72%
    06:00 +21°C° 0 mm 0 mps 734 mmHg 67%
    07:00 +23°C° 0 mm 0 mps 734 mmHg 61%
    08:00 +24°C° 0.1 mm 0 mps 734 mmHg 56%
    09:00 +28°C° 0.1 mm 1 mps 734 mmHg 51%
    10:00 +29°C° 0.1 mm 1 mps 734 mmHg 46%
    11:00 +30°C° 0.3 mm 2 mps 734 mmHg 45%
    12:00 +30°C° 0.3 mm 2 mps 734 mmHg 44%
    13:00 +30°C° 0.3 mm 3 mps 734 mmHg 43%
    14:00 +30°C° 0.4 mm 3 mps 734 mmHg 45%
    15:00 +29°C° 0.4 mm 3 mps 734 mmHg 47%
    16:00 +29°C° 0.4 mm 3 mps 734 mmHg 49%
    17:00 +27°C° 0.1 mm 2 mps 734 mmHg 55%
    18:00 +25°C° 0.1 mm 1 mps 734 mmHg 60%
    19:00 +24°C° 0.1 mm 1 mps 734 mmHg 65%
    20:00 +23°C° 0 mm 1 mps 734 mmHg 67%
    21:00 +22°C° 0 mm 1 mps 735 mmHg 69%
    22:00 +22°C° 0 mm 1 mps 735 mmHg 70%
    23:00 +21°C° 0 mm 1 mps 735 mmHg 71%

    20 July, Saturday

    Time Temperature Precipitation Wind Pressure Humidity
    00:00 +21°C° 0 mm 1 mps 735 mmHg 71%
    01:00 +21°C° 0 mm 1 mps 735 mmHg 72%
    02:00 +20°C° 0 mm 1 mps 735 mmHg 72%
    03:00 +20°C° 0 mm 1 mps 735 mmHg 72%
    04:00 +20°C° 0 mm 1 mps 735 mmHg 71%
    05:00 +22°C° 0 mm 1 mps 735 mmHg 66%
    06:00 +22°C° 0 mm 0 mps 735 mmHg 60%
    07:00 +23°C° 0 mm 0 mps 736 mmHg 55%
    08:00 +27°C° 0 mm 1 mps 736 mmHg 48%
    09:00 +29°C° 0 mm 1 mps 736 mmHg 41%
    10:00 +30°C° 0 mm 1 mps 736 mmHg 35%
    11:00 +31°C° 0 mm 2 mps 736 mmHg 33%
    12:00 +32°C° 0 mm 2 mps 736 mmHg 30%
    13:00 +33°C° 0 mm 3 mps 736 mmHg 28%
    14:00 +33°C° 0 mm 3 mps 736 mmHg 30%
    15:00 +31°C° 0 mm 3 mps 736 mmHg 32%
    16:00 +31°C° 0 mm 3 mps 735 mmHg 33%
    17:00 +28°C° 0 mm 2 mps 735 mmHg 41%
    18:00 +26°C° 0 mm 1 mps 735 mmHg 50%
    19:00 +24°C° 0 mm 1 mps 735 mmHg 58%
    20:00 +23°C° 0 mm 1 mps 736 mmHg 58%
    21:00 +22°C° 0 mm 1 mps 736 mmHg 59%
    22:00 +22°C° 0 mm 1 mps 736 mmHg 60%
    23:00 +22°C° 0 mm 1 mps 736 mmHg 59%

    21 July, Sunday

    Time Temperature Precipitation Wind Pressure Humidity
    00:00 +22°C° 0 mm 1 mps 736 mmHg 58%
    01:00 +22°C° 0 mm 1 mps 736 mmHg 57%
    02:00 +21°C° 0 mm 1 mps 736 mmHg 57%
    03:00 +21°C° 0 mm 1 mps 735 mmHg 58%
    04:00 +21°C° 0 mm 1 mps 735 mmHg 58%
    05:00 +23°C° 0 mm 1 mps 736 mmHg 55%
    06:00 +25°C° 0 mm 1 mps 736 mmHg 53%
    07:00 +27°C° 0 mm 1 mps 736 mmHg 51%
    08:00 +29°C° 0 mm 1 mps 736 mmHg 47%
    09:00 +31°C° 0 mm 1 mps 736 mmHg 42%
    10:00 +32°C° 0 mm 1 mps 737 mmHg 38%
    11:00 +34°C° 0 mm 2 mps 737 mmHg 37%
    12:00 +35°C° 0 mm 2 mps 736 mmHg 35%
    13:00 +36°C° 0 mm 2 mps 736 mmHg 33%
    14:00 +35°C° 0.1 mm 2 mps 736 mmHg 37%
    15:00 +34°C° 0.1 mm 3 mps 736 mmHg 41%
    16:00 +33°C° 0.1 mm 3 mps 736 mmHg 45%
    17:00 +30°C° 0.1 mm 2 mps 736 mmHg 50%
    18:00 +29°C° 0.1 mm 2 mps 736 mmHg 55%
    19:00 +27°C° 0.1 mm 1 mps 736 mmHg 61%
    20:00 +26°C° 0 mm 1 mps 736 mmHg 62%
    21:00 +26°C° 0 mm 1 mps 736 mmHg 63%
    22:00 +25°C° 0 mm 1 mps 737 mmHg 64%
    23:00 +25°C° 0 mm 2 mps 737 mmHg 63%
    Show more